Dewpoint
73 73 73 73 73 73 73 72 70 71 74 72 72 73 76 76 76 74 74 75 76 77 78 79 79 79 76 78 78 78 78 78 80 77 77 77 77 72 72 70 72 77
73 74 74 72 75 75 75 72 73 73 74 76 73 75 75 76 74 75 75 75 75 75 78 76 78 78 78 77 78 77 78 78 77 74 76 75 77 74 72 73 71 76
72 72 71 71 69 70 66 69 73 72 72 70 72 75 73 73 73 76 76 75 74 72 76 77 77 78 77 78 79 78 76 77 76 73 77 78 77 75 76 71 71 71
72 71 69 68 69 69 67 69 71 72 70 71 70 68 69 68 73 73 76 76 76 75 74 74 75 75 77 77 78 78 77 78 78 77 77 79 79 76 76 76 76 73
71 71 70 69 69 70 70 68 66 68 67 69 68 72 75 75 74 72 74 75 76 74 75 75 75 74 76 77 77 76 76 77 77 78 77 78 79 78 75 77 77 74
73 73 73 71 70 71 68 67 67 67 67 65 68 68 69 72 72 71 72 72 71 70 70 71 72 72 73 76 76 75 74 73 74 77 76 76 75 74 73 74 76 75
71 71 70 69 67 68 68 68 67 68 66 65 69 68 68 68 71 72 73 72 71 72 69 72 74 73 73 75 76 76 76 76 75 77 76 76 76 75 72 74 76 76
71 70 70 70 67 66 67 67 66 67 68 68 65 68 68 66 70 68 71 71 70 71 72 71 74 75 70 72 74 75 74 71 74 76 76 76 76 75 75 73 76 76
70 70 70 69 67 65 64 63 65 65 67 66 63 63 67 67 68 67 72 73 71 72 73 72 74 72 71 72 73 75 74 71 69 74 75 74 74 75 74 74 74 75
71 70 69 67 66 64 64 63 63 64 66 65 63 62 63 66 67 68 71 74 72 74 73 72 74 71 71 71 74 74 73 74 75 74 72 73 73 72 72 73 72 73
70 69 67 68 66 63 63 62 62 63 64 64 62 60 62 63 67 70 71 72 68 71 72 72 72 72 73 70 70 71 73 71 73 75 75 74 73 73 74 74 73 72
72 70 68 65 66 64 62 62 62 62 63 64 63 62 62 62 65 65 68 70 70 70 71 72 73 73 73 73 70 69 71 71 73 73 72 73 73 73 73 73 72 73
71 69 68 65 65 64 62 61 60 59 60 63 64 63 61 59 62 65 66 69 70 70 70 72 73 72 74 74 73 72 72 71 70 72 72 72 71 71 69 70 70 71
71 72 72 70 65 67 66 62 60 59 60 62 64 63 61 58 58 62 64 65 68 68 70 72 73 72 74 75 74 72 71 72 71 70 69 70 70 71 69 68 69 69
74 74 73 73 72 70 69 67 63 63 62 62 64 62 59 60 58 58 62 63 65 68 69 69 69 70 70 72 73 73 72 69 70 70 70 70 70 68 69 69 67 66
74 73 73 74 73 72 73 71 67 64 60 61 63 62 64 66 65 62 60 63 63 66 68 66 67 67 70 68 70 72 72 68 69 70 70 70 71 70 68 67 64 63
74 73 74 73 74 74 73 72 72 67 66 71 70 66 66 69 66 63 59 59 62 63 65 64 64 64 66 64 65 68 72 72 71 72 71 72 70 72 70 66 65 65
75 74 74 74 73 74 74 73 73 72 72 72 71 67 75 70 65 65 66 61 58 61 62 63 64 65 61 62 64 64 69 72 71 70 69 70 70 69 70 68 66 64
73 73 74 75 75 75 74 74 74 74 73 71 70 68 68 71 73 68 67 67 63 65 61 62 63 63 60 60 62 63 64 69 69 69 67 66 68 70 70 70 69 68
74 74 73 74 75 74 74 73 73 73 73 73 72 72 72 72 68 68 70 71 69 68 71 65 63 64 58 58 60 61 62 65 69 67 67 66 67 68 68 69 71 71
72 73 74 74 74 75 74 73 73 73 73 74 73 73 71 71 72 71 70 70 69 68 68 67 61 61 57 56 57 58 61 64 69 66 65 65 67 68 70 68 70 70
70 71 72 73 74 74 74 73 73 73 73 75 75 74 73 75 74 71 71 72 71 69 68 67 65 60 56 56 56 57 60 67 69 70 67 65 65 66 67 69 70 71
69 70 71 72 73 74 73 74 74 73 75 75 75 75 74 73 73 71 74 71 71 72 71 70 69 65 57 54 54 56 59 68 70 70 70 69 68 68 69 69 67 67
68 69 71 71 72 71 73 74 75 75 75 76 75 75 74 73 72 73 73 73 72 71 70 71 70 68 59 53 53 55 61 68 70 71 70 71 70 71 71 72 71 72
68 69 70 70 71 71 71 72 73 73 74 75 75 75 74 74 74 73 73 73 73 72 72 70 70 69 60 54 53 53 60 68 70 71 70 71 71 71 72 72 73 73
68 69 69 69 70 71 72 73 73 73 73 73 74 75 74 74 75 74 73 72 73 73 71 70 70 71 70 55 53 53 55 68 71 71 70 70 71 71 71 72 72 73